Location: Passau
(48.5830°N, 13.4830°E)
Time: 22:05:07
(UTC+02:00)

Vanguard 2 - All Passes

Search period start: 27 May 2024 00:00
Search period end: 06 June 2024 00:00
Orbit: 552 x 2914 km, 32.9° (Epoch: 27 May)

Date Brightness Start Highest point End Pass type
(mag) Time Alt. Az. Time Alt. Az. Time Alt. Az.
27 May - 17:07:19 10° SSW 17:08:55 11° S 17:10:24 10° SSE daylight
28 May - 15:13:21 10° SSW 15:15:50 12° S 15:18:00 10° SSE daylight
28 May - 17:21:20 10° SSW 17:22:59 12° S 17:24:31 10° SSE daylight
29 May - 15:26:33 10° SSW 15:29:58 14° S 15:32:47 10° SE daylight
29 May - 17:35:43 10° SSW 17:37:01 11° SSW 17:38:14 10° S daylight
30 May - 13:33:01 10° S 13:36:28 13° SSE 13:39:24 10° SE daylight
30 May - 15:40:09 10° SW 15:44:04 16° S 15:47:14 10° SE daylight
31 May - 13:45:37 10° SSW 13:50:37 16° S 13:54:33 10° SE daylight
31 May - 15:54:00 10° SW 15:58:09 17° S 16:01:26 10° SSE daylight
01 Jun - 11:53:29 10° S 11:56:36 12° SSE 11:59:22 10° SE daylight
01 Jun - 13:58:47 10° SW 14:04:45 19° S 14:09:13 10° SE daylight
01 Jun - 16:08:01 10° SW 16:12:11 17° SSW 16:15:29 10° SSE daylight
02 Jun - 12:04:51 10° SSW 12:10:43 15° SSE 12:15:26 10° SE daylight
02 Jun - 14:12:18 10° SW 14:18:52 21° S 14:23:38 10° SE daylight
02 Jun - 16:22:13 10° SW 16:26:10 16° SSW 16:29:21 10° SSE daylight
03 Jun - 12:17:22 10° SSW 12:24:51 19° SSE 12:30:29 10° ESE daylight
03 Jun - 14:26:00 10° SW 14:32:57 23° S 14:37:53 10° SE daylight
03 Jun - 16:36:37 10° SW 16:40:06 15° SSW 16:42:59 10° S daylight
04 Jun - 10:25:25 10° S 10:30:17 13° SSE 10:34:32 10° SE daylight
04 Jun - 12:30:22 10° SW 12:38:58 23° S 12:45:08 10° ESE daylight
04 Jun - 14:39:53 10° SW 14:47:00 24° S 14:52:00 10° SE daylight
04 Jun - 16:51:21 10° SW 16:53:59 13° SSW 16:56:15 10° S daylight
05 Jun - 10:36:35 10° S 10:44:21 17° SSE 10:50:35 10° ESE daylight
05 Jun - 12:43:42 10° SW 12:53:04 26° S 12:59:35 10° ESE daylight
05 Jun - 14:53:54 10° WSW 15:01:00 24° SSW 15:06:01 10° SE daylight
05 Jun - 17:07:32 10° SW 17:07:46 10° SSW 17:08:01 10° SSW daylight
